ZHONGXING-6B

Last updated on Jan. 17, 2021, 6:29 a.m. UTC

1 31800U 07031A   21016.77202204 -.00000366  00000-0  00000-0 0  9993
2 31800   0.0068   2.8758 0003842 292.2451 214.6892  1.00274393 49600
UTC
Height (km)
Latitude
Longitude
Inclination
Orbital Period
UTC large
Height (km)
Speed (km/s)
/
Latitude / Longitude
Inclination (degrees)
Orbital Period (minutes)
Azimuth
Elevation
Range (km)
Doppler Factor
iOS Compass Heading
iOS Angle

Next 30 passes for location: Hong Kong

Rise time Rise Azimuth (degrees) Set time Set Azimuth (degrees) Duration Max altitude (degrees)

No matching passes for this satellites